sat.trackr.live / text

‹ back to catalog

ONEWEB-0241

NORAD 48773 · 2021-045G

PAYLOAD ACTIVE UNKNOWN

§ Identity

Operator
Country
UK
Launch date
2021-05-28
Launch site
VOSTO
Launch vehicle
Mass (kg)
RCS (m²)

Purposes: comms

External: N2YO · Heavens-Above · Gunter

§ Orbital elements

Epoch: 2026-09-19T15:33:53.862912Z

Period
109.46 min
Inclination
87.8992°
Eccentricity
0.0001923
Mean motion
13.15549142 rev/d
Perigee alt
1,200.3 km
Apogee alt
1,203.2 km
Semi-major
7,579.9 km
B*
-2.7993e-5
RAAN
240.3693°
Arg perigee
74.5006°
Mean anomaly
285.6337°
Rev number
25,675

§ Raw data

ONEWEB-02411 48773U 21045G   26262.64854008  .00000002  00000+0 -27993-4 0  99902 48773  87.8992 240.3693 0001923  74.5006 285.6337 13.15549142256752

JSON: /api/v1/satellites/48773 · /tle

For live sub-satellite position, see the globe view (requires WebGL).

§ Visibility from observer

Set your observer location to see the next 7 days of passes ≥ 10°. The values pass through the URL so the page stays shareable.

No JS? Fill the form by hand. The geolocation button needs JavaScript.